Weather in Gorneshno

Russia / Novgorod Oblast     58°16′32″N   33°14′21″E
temp.,
°C
wind,
m/s
gust,
m/s
humid.,
%
clouds,
%
prec.,
mm/h
press.,
hPa
HPBL,
m
22 may, sun
sun2200:00+4e411720 0.0 1010313
03:00+1ene310854 0.0 1011312
06:00+1ene39795 0.0 1011326
09:00+6ne46440 0.0 10101159
12:00+9ne46352 0.0 10101624
15:00+11ne46302 0.0 10091885
18:00+11nne46335 0.0 10081920
21:00+5n39530 0.0 1009253
23 may, mon
mon2300:00+1n26712 0.0 1011105
03:00−1nnw23800 0.0 101155
06:00+1nnw39630 0.0 1012256
09:00+8nnw48431 0.0 10101069
12:00+12nnw69365 0.0 10081727
15:00+13nnw6931100 0.0 10071940
18:00+12nnw5103681 0.0 10081539
21:00+7nnw41247100 0.0 1008664
24 may, tue
tue2400:00+4nw31273100 0.0 1008313
03:00+3nw31279100 0.0 1009400
06:00+4nnw31251100 0.0 1009586
09:00+7nnw51037100 0.0 1010884
12:00+10nnw593596 0.0 10101481
15:00+10nne5756100 0.0 10111402
18:00+8n3669100 0.0 10131103
21:00+5nne227864 0.0 101445
25 may, wed
wed2500:00+4ne127872 0.0 101575
03:00+2ne008498 0.0 101610
06:00+4ne0177100 0.0 1017101
09:00+8n125692 0.0 1016912
12:00+12nnw134771 0.0 10151322
15:00+14nnw244799 0.0 10141719
18:00+15n244415 0.0 10121748
21:00+9se227746 0.0 101222
26 may, thu
thu2600:00+6s1190100 0.0 101212
03:00+5ssw118479 0.0 101010
06:00+7e12745 0.0 100868
09:00+14ese344953 0.0 1005521
12:00+18ese333999 0.0 10021522
15:00+14wsw3566100 0.0 1001590
18:00+11w2597100 0.6 1000210
21:00+10wnw3699100 3.6 1000388